Flag for Argentina Weather past 2 weeks in Corrientes, Corrientes, Argentina

Now
93 °F

Clear.


Feels Like: 93 °F
Forecast: 75 / 93 °F
Wind: 20 mph from North

Location: Resistencia Aero.

Current Time: Aug 23, 2014 at 4:10:15 PM

Latest Report: Aug 23, 2014 at 2:00 PM


Visibility: 4 mi

Pressure: 29.62 "Hg

Humidity: 34%

Dew point: 61 °F

Location of CorrientesLocation

Historic Weather in Corrientes — Graph

°F

Corrientes temperature yesterday

Maximum temperature yesterday: 91 °F (at 2:00 PM)
Minimum temperature yesterday: 66 °F (at 4:00 AM)
Average temperature yesterday: 77 °F

Past Weeks' High & Low Weather Summary

 TemperatureHumidityPressure
High93 °F (Aug 23, 2:00 PM)100% (Aug 10, 4:00 AM)30.51 "Hg (Aug 10, 4:00 AM)
Low34 °F (Aug 14, 8:00 AM)29% (Aug 21, 4:00 PM)29.62 "Hg (Aug 23, 2:00 PM)
Average67 °F72%30.05 "Hg
* Reported Aug 8 2:00 PM — Aug 23 2:00 PM, Corrientes, Weather by CustomWeather, © 2014

Note: Actual official high and low records may vary slightly from our data, if they occured in-between our weather recording intervals... More about our weather records

Advertising

Corrientes weather history for previous 24 hours

 ConditionsComfort  
Time TempWeatherWind HumidityBarometerVisibility
2:00 PM
Aug 23
93 °FClear.20 mph34%29.62 "Hg4 mi
12:00 PM90 °FSunny.12 mph46%29.71 "Hg10 mi
10:00 AM81 °FClear.13 mph58%29.74 "Hg5 mi
9:00 AM77 °FClear.9 mph65%29.74 "Hg5 mi
8:00 AM73 °FSunny.7 mph74%29.74 "Hg10 mi
7:00 AM73 °FSunny.9 mph78%29.71 "Hg10 mi
6:00 AM75 °FClear.8 mph69%29.71 "Hg10 mi
5:00 AM75 °FClear.8 mph69%29.71 "Hg10 mi
4:00 AM73 °FClear.7 mph78%29.71 "Hg10 mi
3:00 AM73 °FClear.5 mph83%29.74 "Hg10 mi
2:00 AM73 °FClear.7 mph78%29.74 "Hg10 mi
1:00 AM73 °FClear.6 mph83%29.74 "Hg10 mi
12:00 AM75 °FClear.5 mph78%29.77 "Hg10 mi
11:00 PM
Aug 22
77 °FClear.6 mph74%29.77 "Hg10 mi
10:00 PM79 °FClear.7 mph70%29.77 "Hg10 mi
9:00 PM79 °FClear.7 mph70%29.77 "Hg10 mi
8:00 PM77 °FClear.7 mph74%29.74 "Hg4 mi
6:00 PM82 °FClear.5 mph58%29.71 "Hg4 mi
5:00 PM86 °FScattered clouds.5 mph46%29.74 "Hg4 mi
4:00 PM86 °FScattered clouds.12 mph46%29.74 "Hg4 mi
Weather by CustomWeather, © 2014

See weather overviewHow to use our weather pages